CW3821 Weather Reports


time (UTC)temp
C
wind
direction
speed
KPH
gust
KPH
rain 1hr
cm
rain 24hr
cm
rain mn
cm
humidity
%
barometer
mb
20240416051528 10 284 12.9 0.0 0.00 0.00 0.00 29 991.2
20240416050006 10 312 14.5 0.0 0.00 0.00 0.00 29 991.1
20240416044559 10 312 16.1 0.0 0.00 0.00 0.00 31 991.3
20240416044505 10 288 16.1 0.0 0.00 0.00 0.00 31 991.3
20240416043024 10 333 6.4 0.0 0.00 0.00 0.00 31 992.1
20240416041520 10 296 4.8 0.0 0.00 0.00 0.00 31 993.2
20240416040017 10 318 8.0 0.0 0.00 0.00 0.00 32 993.3
20240416034520 10 268 11.3 0.0 0.00 0.00 0.00 32 993.1
20240416033053 10 282 9.7 0.0 0.00 0.00 0.00 32 993.4
20240416031546 10 282 6.4 0.0 0.00 0.00 0.00 32 994.8
20240416030035 10 295 8.0 0.0 0.00 0.00 0.00 33 994.5
20240416024506 10 260 17.7 0.0 0.00 0.00 0.00 35 994.1
20240416023110 10 284 27.4 0.0 0.00 0.00 0.00 35 994.3
20240416023002 10 301 25.7 0.0 0.00 0.00 0.00 35 994.3
20240416021537 10 320 27.4 0.0 0.00 0.00 0.00 34 994.5
20240416020013 10 304 25.7 0.0 0.00 0.00 0.00 33 994.2
20240416014553 11 284 25.7 0.0 0.00 0.00 0.00 33 993.5
20240416013031 11 295 27.4 0.0 0.00 0.00 0.00 33 993.3
20240416011530 12 306 17.7 0.0 0.00 0.00 0.00 30 993.9
20240416010024 12 304 29.0 0.0 0.00 0.00 0.00 28 992.9
20240416004559 13 320 30.6 0.0 0.00 0.00 0.00 25 992.3
20240416003107 14 274 19.3 0.0 0.00 0.00 0.00 23 991.9
20240416001516 14 316 19.3 0.0 0.00 0.00 0.00 22 991.6
20240416000034 15 294 11.3 0.0 0.00 0.00 0.00 21 991.0
20240415234514 16 264 22.5 0.0 0.00 0.00 0.00 19 989.7
20240415233057 18 219 6.4 0.0 0.00 0.00 0.00 8 988.9
20240415231558 18 181 6.4 0.0 0.00 0.00 0.00 8 988.6
20240415230030 18 217 12.9 0.0 0.00 0.00 0.00 7 988.4
20240415224525 18 205 17.7 0.0 0.00 0.00 0.00 8 988.1
20240415223100 19 167 12.9 0.0 0.00 0.00 0.00 7 987.9
20240415223004 19 178 12.9 0.0 0.00 0.00 0.00 7 987.9
20240415221554 19 191 17.7 0.0 0.00 0.00 0.00 7 986.6
20240415220050 20 161 12.9 0.0 0.00 0.00 0.00 7 986.9
20240415214540 20 189 16.1 0.0 0.00 0.00 0.00 7 986.5
20240415213032 21 143 12.9 0.0 0.00 0.00 0.00 6 986.6
20240415211530 21 186 14.5 0.0 0.00 0.00 0.00 7 987.1
20240415210026 20 179 14.5 0.0 0.00 0.00 0.00 7 987.1
20240415204556 21 155 14.5 0.0 0.00 0.00 0.00 7 986.8
20240415203034 21 196 17.7 0.0 0.00 0.00 0.00 7 986.8
20240415201524 22 164 16.1 0.0 0.00 0.00 0.00 7 985.8
20240415200020 22 267 12.9 0.0 0.00 0.00 0.00 6 985.9
20240415194550 22 181 14.5 0.0 0.00 0.00 0.00 7 986.4
20240415193042 22 205 16.1 0.0 0.00 0.00 0.00 6 986.6
20240415191546 22 182 14.5 0.0 0.00 0.00 0.00 6 986.6
20240415190030 22 184 12.9 0.0 0.00 0.00 0.00 6 986.9
20240415184531 22 137 11.3 0.0 0.00 0.00 0.00 7 987.3
20240415183027 22 138 4.8 0.0 0.00 0.00 0.00 7 988.3
20240415181508 22 62 3.2 0.0 0.00 0.00 0.00 8 988.0
20240415180103 22 185 8.0 0.0 0.00 0.00 0.00 9 988.4
20240415174544 22 178 4.8 0.0 0.00 0.00 0.00 9 988.9
20240415173021 21 271 3.2 0.0 0.00 0.00 0.00 8 989.8
20240415171549 21 248 4.8 0.0 0.00 0.00 0.00 9 989.1
20240415170031 21 210 3.2 0.0 0.00 0.00 0.00 10 989.5
20240415164536 21 168 3.2 0.0 0.00 0.00 0.00 11 989.6
20240415163034 20 193 4.8 0.0 0.00 0.00 0.00 11 990.3
20240415161536 20 167 0.0 0.0 0.00 0.00 0.00 13 990.4
20240415160021 18 313 0.0 0.0 0.00 0.00 0.00 17 990.8
20240415154524 18 127 0.0 0.0 0.00 0.00 0.00 17 991.9
20240415153004 16 359 3.2 0.0 0.00 0.00 0.00 19 992.5
20240415151546 15 330 4.8 0.0 0.00 0.00 0.00 21 992.8
20240415150040 14 258 6.4 0.0 0.00 0.00 0.00 22 992.8
20240415144534 14 326 1.6 0.0 0.00 0.00 0.00 23 993.1
20240415143017 14 326 0.0 0.0 0.00 0.00 0.00 22 993.4
20240415141557 13 14 0.0 0.0 0.00 0.00 0.00 22 993.0
20240415141500 13 325 0.0 0.0 0.00 0.00 0.00 21 993.0
20240415140058 13 31 0.0 0.0 0.00 0.00 0.00 21 993.3
20240415140002 13 30 0.0 0.0 0.00 0.00 0.00 21 993.3
20240415134557 13 44 0.0 0.0 0.00 0.00 0.00 19 993.3
20240415134501 13 54 0.0 0.0 0.00 0.00 0.00 19 993.3
20240415133047 13 58 0.0 0.0 0.00 0.00 0.00 19 994.0
20240415131507 11 52 0.0 0.0 0.00 0.00 0.00 22 993.5
20240415130049 10 52 0.0 0.0 0.00 0.00 0.00 23 993.1
20240415124541 11 323 0.0 0.0 0.00 0.00 0.00 21 993.2
20240415123047 11 20 0.0 0.0 0.00 0.00 0.00 21 992.8
20240415121514 11 261 0.0 0.0 0.00 0.00 0.00 20 993.0
20240415120047 10 226 0.0 0.0 0.00 0.00 0.00 21 993.1
20240415114529 10 220 0.0 0.0 0.00 0.00 0.00 22 993.1
20240415113024 11 236 0.0 0.0 0.00 0.00 0.00 21 993.3
20240415111606 10 195 0.0 0.0 0.00 0.00 0.00 22 993.0
20240415111501 10 193 0.0 0.0 0.00 0.00 0.00 22 993.0
20240415110057 11 154 0.0 0.0 0.00 0.00 0.00 22 992.7
20240415104547 12 232 0.0 0.0 0.00 0.00 0.00 20 992.7
20240415103023 12 241 0.0 0.0 0.00 0.00 0.00 19 992.3
20240415101604 13 243 0.0 0.0 0.00 0.00 0.00 18 992.6
20240415101502 13 240 0.0 0.0 0.00 0.00 0.00 17 992.6
20240415100051 12 219 0.0 0.0 0.00 0.00 0.00 19 992.9
20240415094531 11 144 0.0 0.0 0.00 0.00 0.00 22 992.9
20240415093006 11 251 0.0 0.0 0.00 0.00 0.00 20 993.4
20240415091529 11 244 0.0 0.0 0.00 0.00 0.00 23 993.2
20240415090024 12 254 0.0 0.0 0.00 0.00 0.00 23 993.2
20240415084522 11 217 0.0 0.0 0.00 0.00 0.00 24 992.8
20240415083010 13 250 0.0 0.0 0.00 0.00 0.00 24 992.9
20240415081547 14 232 0.0 0.0 0.00 0.00 0.00 23 993.2
20240415080034 14 196 0.0 0.0 0.00 0.00 0.00 21 993.2
20240415074510 14 210 0.0 0.0 0.00 0.00 0.00 22 993.6
20240415073005 15 220 0.0 0.0 0.00 0.00 0.00 21 993.7
20240415071537 15 237 0.0 0.0 0.00 0.00 0.00 20 994.3
20240415070026 15 179 1.6 0.0 0.00 0.00 0.00 21 994.0
20240415064509 16 224 1.6 0.0 0.00 0.00 0.00 20 994.2
20240415063049 15 171 0.0 0.0 0.00 0.00 0.00 20 994.0
20240415061534 16 188 0.0 0.0 0.00 0.00 0.00 19 994.8
20240415060030 16 174 0.0 0.0 0.00 0.00 0.00 18 994.5
20240415054516 17 174 1.6 0.0 0.00 0.00 0.00 17 994.3
20240415053054 18 154 0.0 0.0 0.00 0.00 0.00 16 994.6